Location: Lake Almanor
(40.2485°N, 121.1442°W)
Time: 07:45:03
(UTC-08:00)

STARLINK-1109 - Pass Details

Date: 01 February 2020
Orbit: 349 x 351 km, 53.0° (Epoch: 18 February)

Event Time Altitude Azimuth Distance (km) Brightness Sun altitude
Rises 18:37:53 0° 307° (NW) 2,163 7.3 -14.6°
Reaches altitude 10° 18:39:54 10° 303° (WNW) 1,318 6.2 -14.9°
Maximum altitude 18:42:48 62° 222° (SW) 399 3.1 -15.5°
Enters shadow 18:44:31 21° 146° (SE) 843 4.3 -15.8°
